| time (UTC) | temp F | wind direction | speed MPH | gust MPH | rain 1hr in | rain 24hr in | rain mn in | humidity % | barometer mb |
| 20260901220035 | 71 | 274 | 6.0 | 20.0 | 0.00 | 0.00 | 0.00 | 55 | 1011.2 |
| 20260901214536 | 72 | 273 | 7.0 | 19.0 | 0.00 | 0.00 | 0.00 | 55 | 1011.0 |
| 20260901213035 | 72 | 288 | 7.0 | 23.0 | 0.00 | 0.00 | 0.00 | 55 | 1011.1 |
| 20260901211533 | 71 | 310 | 6.0 | 18.0 | 0.00 | 0.00 | 0.00 | 55 | 1011.3 |
| 20260901210108 | 71 | 316 | 6.0 | 17.0 | 0.00 | 0.00 | 0.00 | 55 | 1011.4 |
| 20260901204644 | 70 | 309 | 7.0 | 18.0 | 0.00 | 0.00 | 0.00 | 55 | 1011.5 |
| 20260901203035 | 71 | 301 | 6.0 | 15.0 | 0.00 | 0.00 | 0.00 | 55 | 1011.5 |
| 20260901201535 | 70 | 316 | 6.0 | 22.0 | 0.00 | 0.00 | 0.00 | 58 | 1011.5 |
| 20260901200037 | 68 | 358 | 9.0 | 19.0 | 0.00 | 0.00 | 0.00 | 58 | 1011.7 |
| 20260901194533 | 69 | 347 | 11.0 | 19.0 | 0.00 | 0.00 | 0.00 | 56 | 1011.9 |
| 20260901190035 | 73 | 263 | 2.0 | 14.0 | 0.00 | 0.00 | 0.00 | 57 | 1012.8 |
| 20260901183035 | 71 | 222 | 1.0 | 4.0 | 0.00 | 0.00 | 0.00 | 59 | 1013.0 |
| 20260901181536 | 70 | 154 | 1.0 | 7.0 | 0.00 | 0.00 | 0.00 | 62 | 1013.2 |
| 20260901180040 | 67 | 95 | 2.0 | 4.0 | 0.00 | 0.00 | 0.00 | 67 | 1013.3 |
| 20260901174536 | 64 | 145 | 2.0 | 5.0 | 0.00 | 0.00 | 0.00 | 74 | 1013.3 |
| 20260901170143 | 59 | 135 | 0.0 | 3.0 | 0.00 | 0.00 | 0.00 | 84 | 1013.4 |
| 20260901164534 | 57 | 116 | 2.0 | 5.0 | 0.00 | 0.00 | 0.00 | 90 | 1013.4 |
| 20260901163037 | 56 | 142 | 1.0 | 4.0 | 0.00 | 0.00 | 0.00 | 97 | 1013.3 |
| 20260901161534 | 54 | 175 | 2.0 | 6.0 | 0.00 | 0.00 | 0.00 | 98 | 1013.3 |
| 20260901160035 | 52 | 178 | 2.0 | 5.0 | 0.00 | 0.00 | 0.00 | 97 | 1013.1 |
| 20260901154534 | 51 | 180 | 2.0 | 4.0 | 0.00 | 0.00 | 0.00 | 97 | 1013.0 |
| 20260901153036 | 50 | 165 | 1.0 | 4.0 | 0.00 | 0.00 | 0.00 | 97 | 1013.0 |
| 20260901151645 | 49 | 171 | 2.0 | 5.0 | 0.00 | 0.00 | 0.00 | 97 | 1013.0 |
| 20260901150036 | 48 | 164 | 3.0 | 5.0 | 0.00 | 0.00 | 0.00 | 97 | 1012.9 |
| 20260901144535 | 47 | 174 | 3.0 | 4.0 | 0.00 | 0.00 | 0.00 | 97 | 1012.7 |
| 20260901143030 | 47 | 162 | 3.0 | 5.0 | 0.00 | 0.00 | 0.00 | 97 | 1012.6 |
| 20260901140037 | 46 | 145 | 3.0 | 4.0 | 0.00 | 0.00 | 0.00 | 97 | 1012.4 |
| 20260901133029 | 45 | 154 | 3.0 | 5.0 | 0.00 | 0.00 | 0.00 | 96 | 1012.1 |
| 20260901130035 | 45 | 162 | 3.0 | 4.0 | 0.00 | 0.00 | 0.00 | 96 | 1012.0 |
| 20260901124534 | 45 | 174 | 3.0 | 4.0 | 0.00 | 0.00 | 0.00 | 96 | 1011.8 |
| 20260901121535 | 45 | 179 | 3.0 | 4.0 | 0.00 | 0.00 | 0.00 | 96 | 1011.8 |
| 20260901114533 | 46 | 180 | 1.0 | 2.0 | 0.00 | 0.00 | 0.00 | 96 | 1011.8 |
| 20260901113032 | 46 | 180 | 2.0 | 3.0 | 0.00 | 0.00 | 0.00 | 95 | 1011.7 |
| 20260901111536 | 46 | 180 | 2.0 | 4.0 | 0.00 | 0.00 | 0.00 | 95 | 1011.7 |
| 20260901110153 | 47 | 180 | 2.0 | 4.0 | 0.00 | 0.00 | 0.00 | 95 | 1011.8 |
| 20260901104609 | 47 | 180 | 3.0 | 4.0 | 0.00 | 0.00 | 0.00 | 95 | 1011.8 |
| 20260901103036 | 47 | 180 | 3.0 | 5.0 | 0.00 | 0.00 | 0.00 | 95 | 1011.9 |
| 20260901101650 | 47 | 150 | 2.0 | 4.0 | 0.00 | 0.00 | 0.00 | 95 | 1011.9 |
| 20260901100033 | 47 | 179 | 2.0 | 3.0 | 0.00 | 0.00 | 0.00 | 95 | 1011.9 |
| 20260901094532 | 48 | 162 | 2.0 | 3.0 | 0.00 | 0.00 | 0.00 | 95 | 1011.9 |
| 20260901093032 | 48 | 166 | 2.0 | 4.0 | 0.00 | 0.00 | 0.00 | 95 | 1011.9 |
| 20260901091536 | 48 | 183 | 2.0 | 4.0 | 0.00 | 0.00 | 0.00 | 95 | 1011.9 |
| 20260901090036 | 48 | 164 | 3.0 | 6.0 | 0.00 | 0.00 | 0.00 | 95 | 1011.7 |
| 20260901083036 | 48 | 191 | 3.0 | 5.0 | 0.00 | 0.00 | 0.00 | 94 | 1012.0 |
| 20260901081537 | 48 | 178 | 3.0 | 4.0 | 0.00 | 0.00 | 0.00 | 94 | 1012.0 |
| 20260901080034 | 48 | 158 | 3.0 | 4.0 | 0.00 | 0.00 | 0.00 | 94 | 1011.9 |
| 20260901074536 | 48 | 201 | 2.0 | 3.0 | 0.00 | 0.00 | 0.00 | 93 | 1011.9 |
| 20260901073037 | 48 | 166 | 2.0 | 5.0 | 0.00 | 0.00 | 0.00 | 93 | 1011.8 |
| 20260901064533 | 49 | 164 | 2.0 | 3.0 | 0.00 | 0.00 | 0.00 | 92 | 1011.9 |
| 20260901061536 | 50 | 148 | 3.0 | 4.0 | 0.00 | 0.00 | 0.00 | 91 | 1012.2 |
| 20260901060032 | 51 | 157 | 2.0 | 4.0 | 0.00 | 0.00 | 0.00 | 91 | 1012.3 |
| 20260901054652 | 51 | 176 | 3.0 | 4.0 | 0.00 | 0.00 | 0.00 | 90 | 1012.3 |
| 20260901053037 | 51 | 146 | 2.0 | 4.0 | 0.00 | 0.00 | 0.00 | 89 | 1012.3 |
| 20260901051536 | 52 | 168 | 3.0 | 4.0 | 0.00 | 0.00 | 0.00 | 88 | 1012.2 |
| 20260901050038 | 52 | 165 | 3.0 | 4.0 | 0.00 | 0.00 | 0.00 | 87 | 1012.4 |
| 20260901044611 | 53 | 157 | 3.0 | 5.0 | 0.00 | 0.00 | 0.00 | 86 | 1012.3 |
| 20260901041535 | 55 | 156 | 2.0 | 5.0 | 0.00 | 0.00 | 0.00 | 82 | 1012.1 |
| 20260901040030 | 55 | 131 | 1.0 | 4.0 | 0.00 | 0.00 | 0.00 | 80 | 1012.0 |
| 20260901034532 | 57 | 170 | 3.0 | 4.0 | 0.00 | 0.00 | 0.00 | 76 | 1011.9 |
| 20260901033038 | 59 | 180 | 4.0 | 5.0 | 0.00 | 0.00 | 0.00 | 74 | 1011.7 |
| 20260901030108 | 61 | 177 | 5.0 | 7.0 | 0.00 | 0.00 | 0.00 | 71 | 1011.7 |
| 20260901024642 | 61 | 177 | 5.0 | 6.0 | 0.00 | 0.00 | 0.00 | 71 | 1011.6 |
| 20260901023036 | 61 | 150 | 4.0 | 6.0 | 0.00 | 0.00 | 0.00 | 75 | 1011.5 |
| 20260901021535 | 62 | 152 | 3.0 | 5.0 | 0.00 | 0.00 | 0.00 | 72 | 1011.4 |
| 20260901020036 | 64 | 185 | 4.0 | 4.0 | 0.00 | 0.00 | 0.00 | 65 | 1011.4 |
| 20260901014536 | 68 | 239 | 1.0 | 4.0 | 0.00 | 0.00 | 0.00 | 58 | 1011.4 |
| 20260901013147 | 72 | 262 | 1.0 | 2.0 | 0.00 | 0.00 | 0.00 | 50 | 1011.4 |
| 20260901011608 | 74 | 280 | 0.0 | 4.0 | 0.00 | 0.00 | 0.00 | 48 | 1011.4 |
| 20260901010032 | 76 | 305 | 1.0 | 4.0 | 0.00 | 0.00 | 0.00 | 42 | 1011.5 |
| 20260901003038 | 77 | 319 | 3.0 | 8.0 | 0.00 | 0.00 | 0.00 | 35 | 1011.6 |
| 20260901001534 | 77 | 330 | 4.0 | 8.0 | 0.00 | 0.00 | 0.00 | 35 | 1011.7 |
| 20260901000036 | 78 | 316 | 3.0 | 9.0 | 0.00 | 0.00 | 0.00 | 34 | 1011.8 |
| 20260831233042 | 78 | 324 | 5.0 | 10.0 | 0.00 | 0.00 | 0.00 | 34 | 1012.0 |
| 20260831231536 | 77 | 322 | 5.0 | 11.0 | 0.00 | 0.00 | 0.00 | 36 | 1012.2 |
| 20260831230037 | 78 | 316 | 3.0 | 8.0 | 0.00 | 0.00 | 0.00 | 38 | 1012.3 |
| 20260831224537 | 78 | 330 | 4.0 | 8.0 | 0.00 | 0.00 | 0.00 | 37 | 1012.5 |
| 20260831223035 | 77 | 326 | 6.0 | 13.0 | 0.00 | 0.00 | 0.00 | 37 | 1012.6 |
| 20260831221536 | 77 | 321 | 6.0 | 13.0 | 0.00 | 0.00 | 0.00 | 38 | 1012.9 |